GW0360 Weather Reports


time (UTC)temp
C
wind
direction
speed
KPH
gust
KPH
rain 1hr
cm
rain 24hr
cm
rain mn
cm
humidity
%
barometer
mb
20260505140540 8 0 0.0 6.4 0.15 0.74 0.74 90 1012.7
20260505130105 8 0 0.0 3.2 0.33 0.58 0.58 88 1012.1
20260505125040 8 0 0.0 4.8 0.30 0.56 0.56 88 1012.3
20260505124611 8 0 0.0 4.8 0.28 0.53 0.53 87 1012.1
20260505124042 8 44 1.6 4.8 0.25 0.51 0.51 87 1011.9
20260505123540 8 0 0.0 4.8 0.25 0.51 0.51 86 1013.3
20260505123108 8 0 0.0 1.6 0.25 0.51 0.51 85 1012.8
20260505122540 8 0 0.0 4.8 0.25 0.51 0.51 84 1012.0
20260505122041 8 0 0.0 4.8 0.28 0.51 0.51 83 1011.5
20260505121621 8 0 0.0 1.6 0.20 0.43 0.43 81 1011.2
20260505121041 8 0 0.0 6.4 0.13 0.36 0.36 78 1011.3
20260505120540 9 0 0.0 9.7 0.05 0.25 0.25 76 1011.4
20260505120110 9 0 1.6 9.7 0.05 0.25 0.25 74 1012.7
20260505115543 9 305 0.0 9.7 0.05 0.25 0.25 75 1011.5
20260505115044 9 0 1.6 9.7 0.08 0.25 0.25 76 1009.6
20260505114551 8 0 0.0 8.0 0.13 0.25 0.25 78 1009.6
20260505114044 8 0 0.0 8.0 0.13 0.25 0.25 78 1009.6
20260505113544 8 48 0.0 8.0 0.13 0.25 0.25 77 1009.4
20260505113055 8 128 0.0 4.8 0.13 0.25 0.25 78 1009.5
20260505112544 9 0 0.0 4.8 0.13 0.25 0.25 76 1009.7
20260505112044 9 329 0.0 4.8 0.10 0.23 0.23 76 1009.9
20260505111554 9 0 0.0 4.8 0.10 0.23 0.23 73 1010.1
20260505111048 9 0 0.0 3.2 0.10 0.23 0.23 74 1010.7
20260505110544 9 0 0.0 8.0 0.08 0.20 0.20 72 1010.0
20260505102044 12 26 3.2 22.5 0.00 0.13 0.13 50 1008.8
20260505101557 12 49 4.8 20.9 0.00 0.13 0.13 49 1008.9
20260505101044 12 36 4.8 17.7 0.00 0.13 0.13 50 1008.8
20260505100544 12 38 1.6 12.9 0.00 0.13 0.13 51 1008.9
20260505100136 12 0 3.2 12.9 0.00 0.13 0.13 51 1009.1
20260505095547 12 90 0.0 11.3 0.00 0.13 0.13 51 1009.3
20260505095046 12 0 0.0 17.7 0.00 0.13 0.13 51 1009.0
20260505094556 12 63 0.0 17.7 0.00 0.13 0.13 51 1009.1
20260505094040 12 17 3.2 17.7 0.00 0.13 0.13 49 1009.0
20260505093541 12 355 1.6 14.5 0.00 0.13 0.13 49 1009.1
20260505093058 12 0 1.6 11.3 0.00 0.13 0.13 50 1009.3
20260505092550 12 0 1.6 8.0 0.00 0.13 0.13 50 1009.2
20260505092045 12 0 0.0 9.7 0.00 0.13 0.13 50 1009.3
20260505091614 12 77 0.0 9.7 0.00 0.13 0.13 50 1009.3
20260505091044 12 0 1.6 9.7 0.00 0.13 0.13 49 1009.2
20260505090544 12 0 0.0 4.8 0.00 0.13 0.13 50 1009.3
20260505090101 12 51 0.0 8.0 0.00 0.13 0.13 49 1009.2
20260505085540 12 0 1.6 8.0 0.00 0.13 0.13 48 1009.0
20260505085040 12 0 0.0 8.0 0.00 0.13 0.13 49 1009.0
20260505084552 12 0 0.0 11.3 0.00 0.13 0.13 50 1009.2
20260505084044 12 0 1.6 11.3 0.00 0.13 0.13 49 1009.1
20260505083542 12 15 0.0 4.8 0.00 0.13 0.13 49 1008.9
20260505083054 12 332 0.0 4.8 0.00 0.13 0.13 50 1008.8
20260505082540 12 13 0.0 8.0 0.00 0.13 0.13 49 1008.7
20260505082041 12 0 1.6 8.0 0.00 0.13 0.13 48 1008.4
20260505081554 12 0 0.0 14.5 0.00 0.13 0.13 49 1008.3
20260505081044 12 0 0.0 17.7 0.00 0.13 0.13 48 1008.2
20260505080541 12 28 1.6 17.7 0.00 0.13 0.13 48 1008.0
20260505080054 12 58 1.6 27.4 0.00 0.13 0.13 48 1007.8
20260505075540 12 64 0.0 27.4 0.00 0.13 0.13 49 1007.6
20260505075040 12 20 0.0 8.0 0.00 0.13 0.13 50 1007.7
20260505074547 12 24 1.6 14.5 0.00 0.13 0.13 49 1007.7
20260505074044 12 47 1.6 14.5 0.03 0.13 0.13 51 1007.6
20260505073539 12 32 1.6 19.3 0.03 0.13 0.13 53 1007.6
20260505073058 12 55 0.0 19.3 0.05 0.13 0.13 54 1007.8
20260505072543 12 0 3.2 19.3 0.05 0.13 0.13 54 1007.7
20260505072042 12 55 1.6 14.5 0.08 0.13 0.13 57 1007.7
20260505071550 12 0 1.6 14.5 0.08 0.13 0.13 59 1007.7
20260505071040 12 34 0.0 14.5 0.10 0.13 0.13 62 1007.7
20260505070541 12 0 1.6 16.1 0.10 0.13 0.13 63 1008.2
20260505070052 12 46 3.2 16.1 0.13 0.13 0.13 66 1008.3
20260505065541 11 0 1.6 9.7 0.13 0.13 0.13 67 1008.7
20260505065040 11 60 0.0 4.8 0.13 0.13 0.13 71 1009.0
20260505064546 11 59 0.0 12.9 0.13 0.13 0.13 71 1009.0
20260505064040 11 0 0.0 12.9 0.10 0.10 0.10 69 1009.4
20260505063540 12 76 3.2 12.9 0.10 0.10 0.10 68 1007.6
20260505063053 12 61 0.0 4.8 0.08 0.08 0.08 68 1008.6
20260505062540 12 57 0.0 4.8 0.08 0.08 0.08 66 1009.1
20260505062040 12 36 0.0 6.4 0.05 0.05 0.05 67 1009.1
20260505061549 12 52 0.0 9.7 0.05 0.05 0.05 64 1008.6
20260505061040 13 51 0.0 9.7 0.03 0.03 0.03 63 1008.7
20260505060546 13 288 1.6 9.7 0.03 0.03 0.03 60 1009.0
20260505060052 15 0 1.6 14.5 0.00 0.00 0.00 55 1008.0
20260505055541 16 30 1.6 14.5 0.00 0.00 0.00 49 1007.6
20260505055044 16 35 1.6 12.9 0.00 0.00 0.00 45 1007.1
20260505054618 17 46 1.6 17.7 0.00 0.00 0.00 41 1007.2
20260505054041 17 22 3.2 17.7 0.00 0.00 0.00 41 1007.1
20260505053545 17 59 3.2 14.5 0.00 0.00 0.00 40 1006.9
20260505053053 17 24 1.6 14.5 0.00 0.00 0.00 39 1006.8
20260505052546 17 36 3.2 14.5 0.00 0.00 0.00 39 1006.4
20260505052044 18 140 3.2 17.7 0.00 0.00 0.00 39 1006.4
20260505051557 18 325 3.2 17.7 0.00 0.00 0.00 39 1006.0
20260505051045 18 30 0.0 11.3 0.00 0.00 0.00 39 1005.8
20260505050545 18 25 1.6 11.3 0.00 0.00 0.00 38 1005.5
20260505050104 18 58 1.6 6.4 0.00 0.00 0.00 39 1005.4
20260505041605 20 0 1.6 11.3 0.00 0.00 0.00 39 1005.2
20260505041041 21 59 1.6 11.3 0.00 0.00 0.00 39 1005.0
20260505040542 21 355 1.6 11.3 0.00 0.00 0.00 40 1004.7
20260505040100 21 54 0.0 9.7 0.00 0.00 0.00 40 1004.6
20260505035544 21 0 0.0 9.7 0.00 0.00 0.00 40 1004.9
20260505035040 21 28 0.0 8.0 0.00 0.00 0.00 39 1004.9
20260505034554 21 0 0.0 4.8 0.00 0.00 0.00 41 1005.0
20260505034044 22 0 0.0 17.7 0.00 0.00 0.00 42 1005.0
20260505033544 22 0 0.0 17.7 0.00 0.00 0.00 44 1004.8
20260505033048 21 47 1.6 17.7 0.00 0.00 0.00 47 1004.5
20260505032544 21 0 0.0 8.0 0.00 0.00 0.00 51 1004.5
20260505032047 21 70 1.6 8.0 0.00 0.00 0.00 53 1004.3
20260505031550 21 360 1.6 3.2 0.00 0.00 0.00 60 1004.0
20260505031043 21 0 0.0 3.2 0.00 0.00 0.00 64 1003.8
20260505030544 21 0 0.0 3.2 0.00 0.00 0.00 66 1003.6
20260505025541 21 0 0.0 6.4 0.00 0.00 0.00 65 1003.2
20260505025044 21 0 0.0 6.4 0.00 0.00 0.00 65 1003.3
20260505024547 21 0 0.0 3.2 0.00 0.00 0.00 65 1003.1
20260505024044 21 0 0.0 3.2 0.00 0.00 0.00 65 1003.1
20260505023545 21 0 0.0 3.2 0.00 0.00 0.00 65 1003.1
20260505023053 21 189 0.0 3.2 0.00 0.00 0.00 65 1003.0
20260505022541 21 0 0.0 1.6 0.00 0.00 0.00 65 1003.0
20260505022045 21 0 0.0 1.6 0.00 0.00 0.00 66 1002.8
20260505021555 21 0 0.0 0.0 0.00 0.00 0.00 66 1002.7
20260505021044 21 0 0.0 0.0 0.00 0.00 0.00 65 1002.8
20260505020545 21 0 0.0 1.6 0.00 0.00 0.00 65 1002.7
20260505020058 21 0 0.0 1.6 0.00 0.00 0.00 64 1002.6
20260505015542 21 0 0.0 3.2 0.00 0.00 0.00 65 1002.5
20260505015047 21 0 0.0 3.2 0.00 0.00 0.00 66 1002.5
20260505014553 21 0 0.0 0.0 0.00 0.00 0.00 67 1002.4
20260505014041 21 0 0.0 0.0 0.00 0.00 0.00 66 1002.4
20260505013547 21 0 0.0 0.0 0.00 0.00 0.00 65 1002.4
20260505013054 21 0 0.0 0.0 0.00 0.00 0.00 64 1002.3
20260505012544 22 0 0.0 0.0 0.00 0.00 0.00 63 1002.2
20260505012042 22 0 0.0 0.0 0.00 0.00 0.00 63 1002.2
20260505011552 22 0 0.0 0.0 0.00 0.00 0.00 60 1002.0
20260505011044 22 0 0.0 0.0 0.00 0.00 0.00 60 1001.9
20260505010546 23 0 0.0 0.0 0.00 0.00 0.00 59 1001.9
20260505010109 23 0 0.0 0.0 0.00 0.00 0.00 58 1001.9
20260505005545 23 0 0.0 0.0 0.00 0.00 0.00 56 1001.9
20260505005045 23 0 0.0 0.0 0.00 0.00 0.00 56 1002.0
20260505004549 23 0 0.0 1.6 0.00 0.00 0.00 55 1001.8
20260505004040 24 0 0.0 1.6 0.00 0.00 0.00 54 1002.0
20260505003540 24 0 0.0 1.6 0.00 0.00 0.00 54 1001.9
20260505003052 25 0 0.0 1.6 0.00 0.00 0.00 53 1001.9
20260505002546 25 0 0.0 1.6 0.00 0.00 0.00 52 1001.9
20260505002046 25 0 0.0 1.6 0.00 0.00 0.00 51 1001.9
20260505001551 25 0 0.0 1.6 0.00 0.00 0.00 51 1002.0
20260505001045 25 0 0.0 4.8 0.00 0.00 0.00 50 1002.1
20260505000543 25 0 0.0 4.8 0.00 0.00 0.00 49 1002.0
20260505000100 25 189 0.0 4.8 0.00 0.00 0.00 48 1002.1
20260504235547 25 154 0.0 4.8 0.00 0.00 0.00 49 1002.0
20260504235045 26 0 0.0 4.8 0.00 0.00 0.00 48 1002.1
20260504234551 26 184 0.0 6.4 0.00 0.00 0.00 46 1002.0
20260504234044 26 201 1.6 8.0 0.00 0.00 0.00 47 1002.1
20260504233548 26 185 1.6 8.0 0.00 0.00 0.00 47 1002.1
20260504233057 26 223 1.6 8.0 0.00 0.00 0.00 46 1002.1
20260504232545 26 0 1.6 8.0 0.00 0.00 0.00 45 1002.1
20260504232043 26 201 0.0 8.0 0.00 0.00 0.00 43 1002.1
20260504231555 26 0 1.6 8.0 0.00 0.00 0.00 43 1002.0
20260504231040 26 190 0.0 6.4 0.00 0.00 0.00 44 1002.1
20260504230545 26 0 0.0 6.4 0.00 0.00 0.00 41 1002.0
20260504230110 26 184 1.6 8.0 0.00 0.00 0.00 41 1002.1
20260504225548 26 184 1.6 8.0 0.00 0.00 0.00 40 1002.1
20260504225047 27 217 1.6 11.3 0.00 0.00 0.00 40 1001.9
20260504224606 27 201 4.8 11.3 0.00 0.00 0.00 39 1001.9
20260504224040 27 172 1.6 11.3 0.00 0.00 0.00 38 1001.8
20260504223543 27 250 3.2 11.3 0.00 0.00 0.00 39 1001.9
20260504223047 27 177 3.2 12.9 0.00 0.00 0.00 40 1001.8
20260504222544 27 216 4.8 14.5 0.00 0.00 0.00 39 1001.9
20260504222044 27 157 3.2 16.1 0.00 0.00 0.00 39 1001.8
20260504221548 28 161 6.4 16.1 0.00 0.00 0.00 38 1001.9
20260504221044 28 218 1.6 8.0 0.00 0.00 0.00 40 1001.9
20260504220544 28 180 1.6 11.3 0.00 0.00 0.00 39 1001.8
20260504220058 28 0 3.2 11.3 0.00 0.00 0.00 41 1001.8
20260504215545 28 194 1.6 8.0 0.00 0.00 0.00 40 1001.9
20260504215043 27 149 3.2 8.0 0.00 0.00 0.00 40 1001.9
20260504214548 27 171 1.6 14.5 0.00 0.00 0.00 40 1002.0
20260504214040 27 167 3.2 14.5 0.00 0.00 0.00 40 1002.1
20260504213544 28 146 4.8 14.5 0.00 0.00 0.00 38 1002.1
20260504213056 28 227 4.8 14.5 0.00 0.00 0.00 38 1002.1
20260504212544 28 140 1.6 9.7 0.00 0.00 0.00 41 1002.2
20260504212044 28 204 3.2 20.9 0.00 0.00 0.00 40 1002.2
20260504211558 28 204 3.2 20.9 0.00 0.00 0.00 40 1002.1
20260504211043 28 138 1.6 11.3 0.00 0.00 0.00 40 1002.2
20260504210547 28 138 4.8 11.3 0.00 0.00 0.00 42 1002.4
20260504210101 28 171 3.2 11.3 0.00 0.00 0.00 39 1002.4
20260504205544 28 170 3.2 14.5 0.00 0.00 0.00 38 1002.3
20260504205044 28 128 3.2 16.1 0.00 0.00 0.00 40 1002.4
20260504204554 27 207 4.8 16.1 0.00 0.00 0.00 38 1002.5
20260504204041 27 178 3.2 12.9 0.00 0.00 0.00 40 1002.5
20260504203545 28 103 4.8 14.5 0.00 0.00 0.00 38 1002.6
20260504203057 28 225 3.2 14.5 0.00 0.00 0.00 36 1002.6
20260504202544 29 188 1.6 9.7 0.00 0.00 0.00 36 1002.6
20260504202044 28 186 1.6 17.7 0.00 0.00 0.00 37 1002.6
20260504201604 28 207 4.8 17.7 0.00 0.00 0.00 36 1002.7
20260504201043 28 137 1.6 11.3 0.00 0.00 0.00 36 1002.7
20260504200543 28 226 1.6 14.5 0.00 0.00 0.00 38 1002.8
20260504195542 28 176 3.2 12.9 0.00 0.00 0.00 37 1002.8
20260504195044 28 148 1.6 11.3 0.00 0.00 0.00 37 1003.0
20260504194552 28 224 1.6 9.7 0.00 0.00 0.00 36 1002.9
20260504194041 28 182 1.6 14.5 0.00 0.00 0.00 36 1002.8
20260504193543 29 261 4.8 14.5 0.00 0.00 0.00 36 1002.9
20260504193050 28 225 1.6 8.0 0.00 0.00 0.00 39 1002.9
20260504192543 29 0 3.2 11.3 0.00 0.00 0.00 35 1002.9
20260504192044 28 247 0.0 11.3 0.00 0.00 0.00 38 1002.9
20260504191612 29 209 3.2 14.5 0.00 0.00 0.00 38 1003.0
20260504191044 29 213 3.2 17.7 0.00 0.00 0.00 36 1003.0
20260504190547 29 245 6.4 17.7 0.00 0.00 0.00 36 1003.0
20260504190055 29 200 6.4 14.5 0.00 0.00 0.00 35 1003.0
20260504185543 29 182 4.8 14.5 0.00 0.00 0.00 37 1003.0
20260504185042 28 184 1.6 12.9 0.00 0.00 0.00 41 1003.0
20260504184551 28 148 4.8 12.9 0.00 0.00 0.00 40 1003.0
20260504184043 28 332 3.2 12.9 0.00 0.00 0.00 39 1003.0
20260504183543 28 186 3.2 12.9 0.00 0.00 0.00 41 1003.0
20260504183049 28 0 3.2 16.1 0.00 0.00 0.00 39 1003.1
20260504182544 28 190 6.4 17.7 0.00 0.00 0.00 40 1003.1
20260504182041 28 236 3.2 17.7 0.00 0.00 0.00 41 1003.2
20260504181548 27 229 3.2 17.7 0.00 0.00 0.00 42 1003.1
20260504181044 27 211 4.8 17.7 0.00 0.00 0.00 40 1003.1
20260504180544 27 73 3.2 12.9 0.00 0.00 0.00 41 1003.1
20260504180052 27 173 4.8 12.9 0.00 0.00 0.00 41 1003.2
20260504175544 27 204 4.8 12.9 0.00 0.00 0.00 40 1003.3
20260504175045 27 173 4.8 12.9 0.00 0.00 0.00 41 1003.3
20260504174556 27 210 6.4 11.3 0.00 0.00 0.00 41 1003.2
20260504174044 27 146 3.2 16.1 0.00 0.00 0.00 42 1003.3
20260504173545 27 0 4.8 16.1 0.00 0.00 0.00 40 1003.2
20260504173052 27 230 4.8 16.1 0.00 0.00 0.00 39 1003.2
20260504172916 26 208 3.2 11.3 0.00 0.00 0.00 42 1003.4
20260504172043 27 185 3.2 11.3 0.00 0.00 0.00 43 1003.5
20260504171555 26 156 3.2 9.7 0.00 0.00 0.00 43 1003.4
20260504171044 26 232 1.6 11.3 0.00 0.00 0.00 43 1003.6
20260504170540 26 198 4.8 14.5 0.00 0.00 0.00 41 1003.5
20260504151043 22 232 4.8 17.7 0.00 0.00 0.00 48 1003.7
20260504150607 22 187 6.4 17.7 0.00 0.00 0.00 48 1003.8